Le nostre stazioni meteo in Italia

Pubblicità
Il mio iltempo24.it
Geneve-Cointrin, Svizzera (6700): Temperatura & dewpoint: 14.02.2017 16:00:00 - 20.02.2017 16:00:00 (CET)Geneve-Cointrin, Svizzera (6700): velocità del vento & gusts: 14.02.2017 16:00:00 - 20.02.2017 16:00:00 (CET)Geneve-Cointrin, Svizzera (6700): direzione del vento: 14.02.2017 16:00:00 - 20.02.2017 16:00:00 (CET)Geneve-Cointrin, Svizzera (6700): reduced air pressure: 14.02.2017 16:00:00 - 20.02.2017 16:00:00 (CET)Geneve-Cointrin, Svizzera (6700): visibility: 14.02.2017 16:00:00 - 20.02.2017 16:00:00 (CET)Geneve-Cointrin, Svizzera (6700): ore di luce: 14.02.2017 16:00:00 - 20.02.2017 16:00:00 (CET)Geneve-Cointrin, Svizzera (6700): precipitazioni: 14.02.2017 16:00:00 - 20.02.2017 16:00:00 (CET)
Data & Tempo tt [°C] td [°C] ff [km/h] ff [kn] fx [km/h] fx [kn] dd ppp [hPa] vv [km] sd [min] rr [mm]
20.02.2017 16:00:00 12,3 -0,2 4 2 - - SSE 1023,7 35 60 0,0
20.02.2017 15:00:00 11,2 -0,2 6 3 16 9 E 1024,7 - 32 0,0
20.02.2017 14:00:00 10,6 -1,1 3 2 13 7 NE 1025,3 - 43 0,0
20.02.2017 13:00:00 9,2 -2,0 3 2 - - E 1026,2 35 54 0,0
20.02.2017 12:00:00 7,8 -0,2 8 4 16 9 ENE 1027,1 - 60 0,0
20.02.2017 11:00:00 6,3 -1,6 3 2 7 4 SSO 1027,4 - 60 0,0
20.02.2017 10:00:00 4,2 -1,7 3 1 - - N 1028,1 35 60 0,0
20.02.2017 09:00:00 0,8 -2,5 3 2 10 6 E 1028,8 - 33 0,0
20.02.2017 08:00:00 -1,5 -3,3 1 1 7 4 N 1028,8 - 0 0,0
20.02.2017 07:00:00 -2,0 -4,0 3 2 - - O 1028,5 30 0 0,0
20.02.2017 06:00:00 -2,7 -4,2 4 2 6 3 O 1028,6 - 0 0,0
20.02.2017 05:00:00 -2,2 -4,1 4 2 6 4 O 1028,5 - 0 0,0
20.02.2017 04:00:00 -2,2 -3,8 5 3 - - ONO 1028,4 - 0 0,0
20.02.2017 03:00:00 -2,5 -3,6 1 1 4 2 SSO 1028,7 - 0 0,0
20.02.2017 02:00:00 -0,5 -3,2 4 2 7 4 SSO 1028,1 - 0 0,0
20.02.2017 01:00:00 -0,9 -3,3 4 2 - - ONO 1028,4 - 0 0,0
20.02.2017 00:00:00 0,3 -1,9 1 1 9 5 ENE 1027,8 - 0 0,0
19.02.2017 23:00:00 1,1 -2,6 2 1 6 4 N 1027,1 - 0 0,0
19.02.2017 22:00:00 1,8 -1,8 3 2 - - N 1026,7 25 0 0,0
19.02.2017 21:00:00 3,0 -1,8 5 3 10 5 NNO 1026,2 - 0 0,0
19.02.2017 20:00:00 6,1 -1,9 2 1 10 6 NNO 1025,6 - 0 0,0
19.02.2017 19:00:00 7,8 -1,9 5 3 - - SO 1025,0 30 0 0,0
19.02.2017 18:00:00 10,5 -2,9 8 4 22 12 SO 1024,2 - 44 0,0
19.02.2017 17:00:00 12,8 -1,0 16 9 27 15 SO 1023,9 - 60 0,0
19.02.2017 16:00:00 13,3 -0,5 20 11 - - SSO 1023,9 20 60 0,0
19.02.2017 15:00:00 13,4 0,1 18 10 33 18 SSO 1024,1 - 60 0,0
19.02.2017 14:00:00 12,3 1,4 14 7 21 11 SO 1024,8 - 60 0,0
19.02.2017 13:00:00 9,9 1,5 8 4 - - SO 1026,3 16 60 0,0
19.02.2017 12:00:00 7,9 0,6 8 4 16 9 S 1027,5 - 60 0,0
19.02.2017 11:00:00 5,3 1,2 5 3 9 5 ONO 1028,3 - 60 0,0
19.02.2017 10:00:00 3,0 -0,2 4 2 - - S 1028,6 12 60 0,0
19.02.2017 09:00:00 -1,0 -1,8 2 1 6 3 SSO 1029,4 - 33 0,0
19.02.2017 08:00:00 -2,7 -3,8 5 3 6 3 ONO 1029,6 - 0 0,0
19.02.2017 07:00:00 -3,6 -4,3 3 2 - - ONO 1029,3 9 0 0,0
19.02.2017 06:00:00 -2,7 -3,8 1 1 4 2 OSO 1029,1 - 0 0,0
19.02.2017 05:00:00 -3,1 -4,2 4 2 4 2 ONO 1029,0 - 0 0,0
19.02.2017 04:00:00 -3,0 -4,2 2 1 - - O 1028,7 - 0 0,0
19.02.2017 03:00:00 -3,1 -4,0 2 1 5 3 ONO 1028,9 - 0 0,0
19.02.2017 02:00:00 -1,6 -3,1 2 1 4 2 OSO 1028,6 - 0 0,0
19.02.2017 01:00:00 -1,4 -2,8 3 2 - - OSO 1028,5 - 0 0,0
19.02.2017 00:00:00 -1,4 -2,5 3 2 4 2 SO 1028,4 - 0 0,0
18.02.2017 23:00:00 -0,3 -1,5 3 2 4 2 OSO 1027,9 - 0 0,0
18.02.2017 22:00:00 -0,2 -1,5 2 1 - - ONO 1027,6 25 0 0,0
18.02.2017 21:00:00 0,7 -0,6 1 0 4 2 NNE 1027,2 - 0 0,0
18.02.2017 20:00:00 2,0 -0,9 1 1 6 3 NNO 1026,7 - 0 0,0
18.02.2017 19:00:00 3,2 -0,2 3 2 - - NNO 1026,3 25 0 0,0
18.02.2017 18:00:00 6,4 0,4 6 3 16 8 N 1025,3 - 44 0,0
18.02.2017 17:00:00 8,0 0,7 14 7 22 12 NNE 1024,5 - 60 0,0
18.02.2017 16:00:00 8,3 0,5 13 7 - - NE 1024,5 20 60 0,0
18.02.2017 15:00:00 8,4 1,8 11 6 23 12 NNE 1024,6 - 60 0,0
18.02.2017 14:00:00 7,3 1,2 12 7 24 13 NE 1025,1 - 60 0,0
18.02.2017 13:00:00 6,4 0,4 8 5 - - NNE 1025,7 19 59 0,0
18.02.2017 12:00:00 5,3 1,0 8 5 16 9 N 1026,6 - 17 0,0
18.02.2017 11:00:00 3,5 1,3 4 2 13 7 N 1027,3 - 1 0,0
18.02.2017 10:00:00 3,0 1,5 5 3 - - NE 1027,3 7 1 0,0
18.02.2017 09:00:00 0,6 0,1 3 2 7 4 NNO 1028,0 - 0 0,0
18.02.2017 08:00:00 -1,2 -2,1 1 1 4 2 SSO 1028,4 - 0 0,0
18.02.2017 07:00:00 -2,2 -2,8 3 1 - - O 1028,4 3,0 0 0,0
18.02.2017 06:00:00 -2,5 -2,9 2 1 4 2 O 1028,4 - 0 0,0
18.02.2017 05:00:00 -1,8 -2,5 3 1 4 2 OSO 1027,9 - 0 0,0
18.02.2017 04:00:00 -1,6 -2,1 4 2 - - NO 1028,0 - 0 0,0
18.02.2017 03:00:00 -1,1 -1,3 3 2 5 3 SSO 1028,4 - 0 0,0
18.02.2017 02:00:00 -1,2 -2,1 2 1 5 3 ONO 1028,6 - 0 0,0
18.02.2017 01:00:00 -1,3 -1,9 1 1 - - ONO 1028,9 - 0 0,0
18.02.2017 00:00:00 -0,1 -0,4 3 2 5 3 O 1028,6 - 0 0,0
17.02.2017 23:00:00 0,5 0,3 3 2 5 3 O 1028,9 - 0 0,0
17.02.2017 22:00:00 0,9 0,8 3 1 - - NNO 1028,9 10 0 0,0
17.02.2017 21:00:00 1,6 0,9 1 1 4 2 NO 1028,8 - 0 0,0
17.02.2017 20:00:00 3,5 2,5 1 1 9 5 E 1028,4 - 0 0,0
17.02.2017 19:00:00 5,0 2,8 6 3 - - N 1028,3 22 0 0,0
17.02.2017 18:00:00 6,0 3,3 9 5 17 9 N 1027,8 - 0 0,0
17.02.2017 17:00:00 6,7 4,2 8 5 17 9 N 1027,5 - 0 0,0
17.02.2017 16:00:00 7,0 3,2 9 5 - - NE 1027,6 22 0 0,0
17.02.2017 15:00:00 7,7 3,4 13 7 20 11 NE 1027,4 - 0 0,0
17.02.2017 14:00:00 9,2 4,7 8 5 13 7 ENE 1027,4 - 0 0,0
17.02.2017 13:00:00 9,8 4,9 5 3 - - S 1027,9 9 49 0,0
17.02.2017 12:00:00 6,7 3,6 5 3 10 6 SSO 1029,2 - 0 0,0
17.02.2017 11:00:00 4,5 3,2 3 2 13 7 NO 1029,9 - 0 0,1
17.02.2017 10:00:00 4,2 3,0 5 3 - - ENE 1029,8 6 0 0,0
17.02.2017 09:00:00 4,2 2,1 3 2 11 6 SO 1029,8 - 0 0,0
17.02.2017 08:00:00 2,5 1,2 5 3 17 9 ONO 1030,1 - 0 0,0
17.02.2017 07:00:00 1,8 0,8 2 1 - - SSO 1030,1 8 0 0,0
17.02.2017 06:00:00 1,4 0,4 5 3 8 5 S 1030,4 - 0 0,0
17.02.2017 05:00:00 -0,1 -1,0 6 3 11 6 ONO 1031,3 - 0 0,0
17.02.2017 04:00:00 0,2 -0,6 3 1 - - O 1031,3 - 0 0,0
17.02.2017 03:00:00 0,0 -0,5 5 3 6 3 SSO 1031,9 - 0 0,0
17.02.2017 02:00:00 0,6 -0,6 2 1 10 6 N 1032,0 - 0 0,0
17.02.2017 01:00:00 0,5 -0,7 4 2 - - O 1032,3 - 0 0,0
17.02.2017 00:00:00 2,0 0,3 3 2 18 10 O 1032,2 - 0 0,0
16.02.2017 23:00:00 2,9 0,6 2 1 10 6 O 1032,3 - 0 0,0
16.02.2017 22:00:00 3,5 1,1 3 2 - - NE 1032,1 14 0 0,0
16.02.2017 21:00:00 4,8 1,7 3 2 8 5 N 1031,8 - 0 0,0
16.02.2017 20:00:00 5,2 1,7 4 2 5 3 ENE 1031,4 - 0 0,0
16.02.2017 19:00:00 6,6 1,8 4 2 - - NNE 1031,2 14 0 0,0
16.02.2017 18:00:00 8,2 1,9 6 3 8 4 ENE 1030,9 - 0 0,0
16.02.2017 17:00:00 9,4 1,9 3 1 10 5 ENE 1030,8 - 0 0,0
16.02.2017 16:00:00 10,9 2,1 6 3 - - ENE 1030,8 14 46 0,0
16.02.2017 15:00:00 11,1 1,8 8 4 14 7 E 1031,2 - 60 0,0
16.02.2017 14:00:00 10,5 1,5 6 3 15 8 ENE 1032,2 - 60 0,0
16.02.2017 13:00:00 10,1 2,0 8 4 - - ENE 1033,1 11 60 0,0
16.02.2017 12:00:00 8,6 1,8 4 2 11 6 NE 1034,3 - 60 0,0
16.02.2017 11:00:00 7,5 2,3 3 2 9 5 SSE 1034,8 - 60 0,0
16.02.2017 10:00:00 4,4 1,4 3 1 - - O 1035,7 7 60 0,0
16.02.2017 09:00:00 0,8 0,2 4 2 6 3 NO 1036,8 - 29 0,0
16.02.2017 08:00:00 -0,6 -1,2 3 2 7 4 NO 1037,0 - 0 0,0
16.02.2017 07:00:00 -1,3 -1,5 1 1 - - OSO 1037,2 8 0 0,0
16.02.2017 06:00:00 -1,5 -2,2 2 1 7 4 NO 1037,5 - 0 0,0
16.02.2017 05:00:00 -1,2 -1,6 3 1 5 3 NO 1037,5 - 0 0,0
16.02.2017 04:00:00 -1,0 -1,2 2 1 - - OSO 1037,4 - 0 0,0
16.02.2017 03:00:00 -0,1 -1,3 4 2 7 4 ONO 1037,6 - 0 0,0
16.02.2017 02:00:00 -0,2 -0,7 1 0 5 3 SO 1037,7 - 0 0,0
16.02.2017 01:00:00 0,6 -0,5 2 1 - - ONO 1037,6 - 0 0,0
16.02.2017 00:00:00 1,4 0,6 1 1 5 3 N 1037,5 - 0 0,0
15.02.2017 23:00:00 2,4 1,1 2 1 5 3 N 1037,2 - 0 0,0
15.02.2017 22:00:00 2,4 1,0 3 1 - - ONO 1037,4 9 0 0,0
15.02.2017 21:00:00 3,5 0,9 1 1 6 3 NO 1037,0 - 0 0,0
15.02.2017 20:00:00 4,8 1,7 1 1 11 6 NNE 1036,7 - 0 0,0
15.02.2017 19:00:00 6,7 2,6 3 1 - - ENE 1036,1 9 0 0,0
15.02.2017 18:00:00 7,6 2,9 6 4 12 7 NNE 1035,5 - 0 0,0
15.02.2017 17:00:00 9,8 2,9 8 4 12 7 ENE 1035,1 - 27 0,0
15.02.2017 16:00:00 9,5 2,5 7 4 - - ENE 1035,3 9 29 0,0
15.02.2017 15:00:00 10,6 2,3 8 5 20 11 E 1035,3 - 60 0,0
15.02.2017 14:00:00 10,6 1,7 7 4 14 8 ENE 1035,6 - 60 0,0
15.02.2017 13:00:00 10,1 2,0 5 3 - - E 1036,3 9 60 0,0
15.02.2017 12:00:00 8,0 2,6 2 1 12 6 E 1037,5 - 60 0,0
15.02.2017 11:00:00 6,7 2,6 3 2 6 3 NE 1037,8 - 60 0,0
15.02.2017 10:00:00 3,8 1,6 1 1 - - SE 1038,1 8 60 0,0
15.02.2017 09:00:00 -0,4 -0,8 2 1 8 4 ONO 1038,5 - 17 0,0
15.02.2017 08:00:00 -1,8 -2,3 4 2 5 3 O 1038,1 - 0 0,0
15.02.2017 07:00:00 -1,7 -2,1 1 1 - - ENE 1037,5 7 0 0,0
15.02.2017 06:00:00 -1,2 -1,6 3 1 8 4 SO 1037,2 - 0 0,0
15.02.2017 05:00:00 -2,1 -3,0 6 4 8 4 SO 1037,2 - 0 0,0
15.02.2017 04:00:00 -1,8 -2,1 3 1 - - NO 1037,0 - 0 0,0
15.02.2017 03:00:00 -0,7 -1,5 5 3 7 4 SO 1036,7 - 0 0,0
15.02.2017 02:00:00 -1,2 -1,9 2 1 5 3 OSO 1036,5 - 0 0,0
15.02.2017 01:00:00 -0,5 -1,5 1 1 - - NO 1036,3 - 0 0,0
15.02.2017 00:00:00 0,0 -0,8 2 1 4 2 NNO 1035,9 - 0 0,0
14.02.2017 23:00:00 0,2 -0,8 2 1 4 2 NNO 1035,3 - 0 0,0
14.02.2017 22:00:00 1,0 -0,4 1 0 - - S 1034,6 9 0 0,0
14.02.2017 21:00:00 1,2 -0,6 3 1 6 3 NO 1033,9 - 0 0,0
14.02.2017 20:00:00 2,8 0,7 4 2 5 3 NNE 1033,3 - 0 0,0
14.02.2017 19:00:00 4,2 1,1 3 2 - - N 1032,5 9 0 0,0
14.02.2017 18:00:00 5,3 1,3 3 2 7 4 NE 1031,6 - 0 0,0
14.02.2017 17:00:00 8,2 1,5 2 1 9 5 NE 1030,4 - 46 0,0
14.02.2017 16:00:00 8,7 1,5 6 4 - - NE 1030,2 10 60 0,0

tt = Temperatura
td = dewpoint
ff = velocità del vento
fx = gusts
dd = direzione del vento
ppp = reduced air pressure
vv = visibility
sd = ore di luce
rr = precipitazioni

Stazioni seguenti

WeatherPro
AMSI
MeteoEarth